When you browse on this site, cookies collect data to enhance your experience and personalize the content and advertising you see.
Visit our Privacy Policy to learn more. By continuing to use the site, you agree to this use of cookies and data.
  • In Czech Republic
  • List of Countries
  • For 7 days
  • Water Temperature
  • Weather Map
  • Weather Widgets
  • user-avatar
    Login

    Hourly Weather Melbourne

    Today, 4 April, Saturday

    Time Temperature Precipitation Wind Pressure Humidity
    00:00 +16°C° 3 mm 5 mps 745 mmHg 80%
    01:00 +16°C° 3 mm 5 mps 745 mmHg 87%
    02:00 +15°C° 5.7 mm 4 mps 745 mmHg 86%
    03:00 +14°C° 5.7 mm 4 mps 744 mmHg 86%
    04:00 +14°C° 0 mm 3 mps 745 mmHg 85%
    05:00 +14°C° 0.9 mm 4 mps 745 mmHg 82%
    06:00 +14°C° 0.9 mm 5 mps 745 mmHg 79%
    07:00 +14°C° 0.9 mm 6 mps 745 mmHg 76%
    08:00 +13°C° 0.7 mm 6 mps 746 mmHg 75%
    09:00 +13°C° 0.7 mm 6 mps 747 mmHg 75%
    10:00 +14°C° 0 mm 7 mps 747 mmHg 72%
    11:00 +13°C° 0.3 mm 8 mps 748 mmHg 68%
    12:00 +13°C° 0.3 mm 8 mps 748 mmHg 64%
    13:00 +15°C° 0.3 mm 9 mps 748 mmHg 61%
    14:00 +13°C° 0.5 mm 8 mps 748 mmHg 61%
    15:00 +14°C° 0.5 mm 7 mps 749 mmHg 61%
    16:00 +14°C° 0.5 mm 7 mps 749 mmHg 61%
    17:00 +12°C° 0.4 mm 7 mps 750 mmHg 63%
    18:00 +11°C° 0.4 mm 7 mps 751 mmHg 66%
    19:00 +10°C° 0.4 mm 7 mps 751 mmHg 68%
    20:00 +9°C° 0.1 mm 6 mps 752 mmHg 68%
    21:00 +9°C° 0.1 mm 6 mps 753 mmHg 69%
    22:00 +8°C° 0.1 mm 6 mps 754 mmHg 70%
    23:00 +8°C° 0 mm 5 mps 754 mmHg 70%

    Tomorrow, 5 April, Sunday

    Time Temperature Precipitation Wind Pressure Humidity
    00:00 +8°C° 0 mm 5 mps 754 mmHg 70%
    01:00 +8°C° 0 mm 5 mps 754 mmHg 70%
    02:00 +8°C° 0 mm 6 mps 754 mmHg 70%
    03:00 +8°C° 0 mm 6 mps 753 mmHg 70%
    04:00 +8°C° 0 mm 6 mps 753 mmHg 70%
    05:00 +8°C° 0 mm 7 mps 753 mmHg 70%
    06:00 +9°C° 0 mm 8 mps 752 mmHg 69%
    07:00 +8°C° 0 mm 10 mps 752 mmHg 69%
    08:00 +10°C° 0.3 mm 9 mps 752 mmHg 70%
    09:00 +11°C° 0.3 mm 9 mps 753 mmHg 71%
    10:00 +12°C° 0.3 mm 8 mps 754 mmHg 71%
    11:00 +14°C° 0.8 mm 7 mps 754 mmHg 73%
    12:00 +14°C° 0.8 mm 6 mps 754 mmHg 75%
    13:00 +14°C° 0.8 mm 6 mps 754 mmHg 77%
    14:00 +14°C° 0.5 mm 5 mps 754 mmHg 78%
    15:00 +15°C° 0.5 mm 5 mps 754 mmHg 78%
    16:00 +15°C° 0.5 mm 4 mps 755 mmHg 79%
    17:00 +14°C° 0.5 mm 4 mps 755 mmHg 80%
    18:00 +14°C° 0.5 mm 5 mps 756 mmHg 81%
    19:00 +14°C° 0.5 mm 5 mps 757 mmHg 82%
    20:00 +14°C° 0.2 mm 5 mps 757 mmHg 81%
    21:00 +13°C° 0.2 mm 5 mps 758 mmHg 80%
    22:00 +13°C° 0.2 mm 4 mps 759 mmHg 80%
    23:00 +13°C° 0.2 mm 4 mps 759 mmHg 81%

    Day after tomorrow, 6 April, Monday

    Time Temperature Precipitation Wind Pressure Humidity
    00:00 +12°C° 0.2 mm 3 mps 760 mmHg 82%
    01:00 +12°C° 0.2 mm 3 mps 760 mmHg 83%
    02:00 +12°C° 0 mm 3 mps 761 mmHg 83%
    03:00 +11°C° 0 mm 3 mps 761 mmHg 83%
    04:00 +11°C° 0 mm 3 mps 761 mmHg 83%
    05:00 +11°C° 0.1 mm 3 mps 762 mmHg 84%
    06:00 +10°C° 0.1 mm 2 mps 763 mmHg 84%
    07:00 +10°C° 0.1 mm 2 mps 764 mmHg 84%
    08:00 +13°C° 0 mm 2 mps 764 mmHg 76%
    09:00 +13°C° 0 mm 3 mps 764 mmHg 68%
    10:00 +14°C° 0 mm 3 mps 765 mmHg 61%
    11:00 +16°C° 0 mm 3 mps 765 mmHg 56%
    12:00 +16°C° 0 mm 3 mps 765 mmHg 52%
    13:00 +17°C° 0 mm 3 mps 765 mmHg 47%
    14:00 +17°C° 0 mm 3 mps 764 mmHg 48%
    15:00 +16°C° 0 mm 3 mps 764 mmHg 49%
    16:00 +16°C° 0 mm 3 mps 764 mmHg 50%
    17:00 +14°C° 0 mm 3 mps 765 mmHg 54%
    18:00 +14°C° 0 mm 2 mps 765 mmHg 59%
    19:00 +13°C° 0 mm 2 mps 766 mmHg 63%
    20:00 +13°C° 0 mm 2 mps 766 mmHg 66%
    21:00 +12°C° 0 mm 2 mps 767 mmHg 68%
    22:00 +12°C° 0 mm 1 mps 767 mmHg 70%
    23:00 +12°C° 0 mm 1 mps 767 mmHg 71%

    7 April, Tuesday

    Time Temperature Precipitation Wind Pressure Humidity
    00:00 +12°C° 0 mm 1 mps 767 mmHg 72%
    01:00 +11°C° 0 mm 1 mps 767 mmHg 73%
    02:00 +11°C° 0 mm 1 mps 767 mmHg 74%
    03:00 +11°C° 0 mm 1 mps 767 mmHg 75%
    04:00 +11°C° 0 mm 1 mps 766 mmHg 75%
    05:00 +11°C° 0 mm 1 mps 767 mmHg 76%
    06:00 +11°C° 0 mm 1 mps 767 mmHg 77%
    07:00 +11°C° 0 mm 1 mps 767 mmHg 78%
    08:00 +12°C° 0 mm 2 mps 767 mmHg 72%
    09:00 +14°C° 0 mm 2 mps 767 mmHg 66%
    10:00 +15°C° 0 mm 2 mps 767 mmHg 61%
    11:00 +16°C° 0 mm 2 mps 767 mmHg 59%
    12:00 +16°C° 0 mm 3 mps 767 mmHg 57%
    13:00 +16°C° 0 mm 3 mps 767 mmHg 55%
    14:00 +16°C° 0 mm 3 mps 766 mmHg 57%
    15:00 +15°C° 0 mm 4 mps 766 mmHg 58%
    16:00 +14°C° 0 mm 4 mps 766 mmHg 59%
    17:00 +14°C° 0 mm 3 mps 766 mmHg 61%
    18:00 +13°C° 0 mm 3 mps 767 mmHg 63%
    19:00 +13°C° 0 mm 3 mps 767 mmHg 65%
    20:00 +13°C° 0 mm 3 mps 767 mmHg 66%
    21:00 +12°C° 0 mm 3 mps 767 mmHg 68%
    22:00 +13°C° 0 mm 2 mps 768 mmHg 69%
    23:00 +13°C° 0 mm 2 mps 767 mmHg 72%

    8 April, Wednesday

    Time Temperature Precipitation Wind Pressure Humidity
    00:00 +12°C° 0 mm 2 mps 767 mmHg 74%
    01:00 +12°C° 0 mm 2 mps 767 mmHg 76%
    02:00 +12°C° 0 mm 2 mps 767 mmHg 78%
    03:00 +10°C° 0 mm 2 mps 767 mmHg 79%
    04:00 +11°C° 0 mm 1 mps 767 mmHg 81%
    05:00 +11°C° 0 mm 1 mps 767 mmHg 81%
    06:00 +11°C° 0 mm 1 mps 768 mmHg 81%
    07:00 +11°C° 0 mm 1 mps 768 mmHg 82%
    08:00 +13°C° 0 mm 1 mps 768 mmHg 74%
    09:00 +15°C° 0 mm 2 mps 768 mmHg 67%
    10:00 +16°C° 0 mm 2 mps 768 mmHg 59%
    11:00 +17°C° 0 mm 2 mps 768 mmHg 56%
    12:00 +18°C° 0 mm 3 mps 768 mmHg 53%
    13:00 +19°C° 0 mm 3 mps 768 mmHg 51%
    14:00 +19°C° 0 mm 3 mps 768 mmHg 51%
    15:00 +20°C° 0 mm 3 mps 768 mmHg 52%
    16:00 +20°C° 0 mm 3 mps 767 mmHg 53%
    17:00 +18°C° 0 mm 3 mps 768 mmHg 60%
    18:00 +17°C° 0 mm 3 mps 768 mmHg 66%
    19:00 +16°C° 0 mm 2 mps 769 mmHg 73%
    20:00 +15°C° 0 mm 2 mps 769 mmHg 75%
    21:00 +15°C° 0 mm 2 mps 770 mmHg 77%
    22:00 +14°C° 0 mm 2 mps 770 mmHg 80%
    23:00 +14°C° 0 mm 2 mps 770 mmHg 81%

    9 April, Thursday

    Time Temperature Precipitation Wind Pressure Humidity
    00:00 +13°C° 0 mm 2 mps 770 mmHg 83%
    01:00 +13°C° 0 mm 2 mps 770 mmHg 84%
    02:00 +13°C° 0 mm 1 mps 770 mmHg 85%
    03:00 +13°C° 0 mm 1 mps 770 mmHg 86%
    04:00 +12°C° 0 mm 1 mps 770 mmHg 87%
    05:00 +12°C° 0 mm 1 mps 770 mmHg 86%
    06:00 +12°C° 0 mm 1 mps 770 mmHg 86%
    07:00 +12°C° 0 mm 1 mps 771 mmHg 85%
    08:00 +15°C° 0 mm 1 mps 771 mmHg 76%
    09:00 +18°C° 0 mm 1 mps 771 mmHg 66%
    10:00 +21°C° 0 mm 1 mps 770 mmHg 57%
    11:00 +22°C° 0 mm 1 mps 770 mmHg 52%
    12:00 +24°C° 0 mm 1 mps 770 mmHg 47%
    13:00 +25°C° 0 mm 1 mps 769 mmHg 42%
    14:00 +25°C° 0 mm 1 mps 769 mmHg 42%
    15:00 +25°C° 0 mm 1 mps 769 mmHg 41%
    16:00 +25°C° 0 mm 1 mps 768 mmHg 40%
    17:00 +24°C° 0 mm 1 mps 769 mmHg 46%
    18:00 +22°C° 0 mm 1 mps 769 mmHg 53%
    19:00 +20°C° 0 mm 1 mps 769 mmHg 59%
    20:00 +20°C° 0 mm 1 mps 769 mmHg 62%
    21:00 +19°C° 0 mm 1 mps 769 mmHg 64%
    22:00 +18°C° 0 mm 1 mps 769 mmHg 67%
    23:00 +18°C° 0 mm 1 mps 769 mmHg 68%
    Show more